Temp
11 12 12 12 12 11 11 11 11 11 10 10 11 11 11 11 11 10 10 11 11 11 11 11 11 11 11 11 11 11 11 11 11 11 11 11 11 11 11 11 11 11 11 11 11 11 11 11 11 11 11 11 11 11 11 11 11 11 11 11 11 11 11 11 11 11 11 11 11 11 12 12 12 12 12 12 12 12 11 11 11 11 11 11 11
11 12 12 11 10 10 11 11 11 10 10 11 11 11 10 10 9 9 10 10 11 11 11 11 11 11 10 10 11 11 11 11 11 11 11 11 11 11 11 11 11 11 11 11 11 11 11 11 11 11 11 11 11 11 11 11 11 11 11 11 11 11 11 11 11 11 11 11 11 11 11 12 12 12 12 12 12 12 12 11 11 11 11 11 11
10 11 10 10 10 10 10 10 10 10 10 10 10 10 10 9 9 9 9 9 9 10 10 10 10 10 10 10 10 11 11 11 11 11 11 11 11 11 11 11 11 11 11 10 10 11 11 11 11 11 11 11 11 11 11 11 11 11 11 11 11 11 11 11 11 11 11 11 11 11 12 12 12 12 12 12 12 11 11 12 11 11 11 11 11
9 9 9 9 10 10 10 10 10 10 10 10 10 10 9 9 9 9 9 8 8 9 9 10 10 10 10 10 10 11 11 11 11 11 11 11 11 11 11 11 11 11 10 10 10 11 11 10 10 11 11 11 11 11 11 11 11 11 11 11 11 11 11 11 11 11 10 10 11 11 11 11 11 11 11 11 11 11 11 11 11 11 11 11 11
9 9 9 9 10 10 9 9 9 10 10 10 10 9 9 9 9 8 8 8 9 9 10 10 10 10 10 10 10 11 11 11 11 11 11 11 11 11 11 11 11 10 10 10 10 11 11 10 10 10 11 11 11 11 11 11 11 10 10 11 11 11 10 10 10 11 10 11 11 11 11 11 10 10 11 11 11 11 11 11 11 11 11 11 11
8 8 8 9 9 9 9 9 10 10 10 10 9 9 9 8 8 9 9 9 9 9 9 10 10 10 10 10 10 10 11 11 11 11 11 11 11 11 11 11 11 11 10 11 11 11 11 10 10 10 10 10 10 11 11 11 11 10 10 11 11 10 10 10 10 10 11 11 11 11 11 11 10 10 10 11 11 11 11 11 11 11 11 11 11
7 7 7 8 9 10 10 10 10 10 10 9 9 9 9 9 9 9 9 9 9 9 9 9 10 10 10 10 10 10 10 10 10 10 10 10 10 11 11 11 11 11 11 11 11 11 11 10 10 10 10 10 10 10 10 10 11 10 10 10 10 10 10 10 10 10 10 11 11 11 11 11 10 10 10 10 10 10 11 11 11 11 11 11 11
6 6 7 8 9 10 10 10 10 10 10 9 9 9 9 9 9 9 9 9 9 9 9 9 9 10 10 10 10 10 10 10 10 10 10 10 10 10 10 10 10 10 10 10 10 10 10 10 10 10 9 10 10 10 10 10 10 10 10 10 10 10 10 10 10 10 10 10 10 11 11 11 10 10 10 10 10 11 11 11 11 11 11 11 11
6 6 7 9 10 11 11 10 10 10 10 9 9 9 9 9 9 9 9 9 9 9 9 9 9 9 10 10 10 10 10 10 9 9 9 9 9 9 10 10 10 10 10 10 9 9 9 9 9 9 9 10 10 10 10 10 10 10 10 10 10 10 10 10 10 10 10 10 10 10 10 10 10 10 10 10 11 11 11 11 11 11 11 11 11
6 7 8 9 10 10 10 10 10 9 9 9 9 9 9 9 9 9 9 9 9 9 9 9 9 9 9 9 9 9 9 9 8 8 8 9 9 9 9 9 10 10 10 9 9 8 8 8 8 9 9 9 10 10 10 10 10 10 10 10 10 10 10 10 10 9 10 10 10 10 10 10 10 10 10 10 11 11 10 10 11 11 11 11 11
6 7 9 9 9 9 9 9 9 9 8 8 8 8 8 8 9 9 8 8 8 8 9 9 9 9 9 8 9 9 8 7 7 7 8 8 8 9 9 9 9 9 9 8 8 8 8 8 8 8 8 8 9 9 9 9 9 9 9 9 10 10 10 10 10 9 9 9 9 9 10 10 10 10 10 10 10 10 10 10 11 11 10 10 10
6 7 8 9 8 9 9 9 8 8 8 8 8 8 8 8 8 8 8 8 8 8 8 8 8 8 8 8 8 8 7 7 7 7 7 8 8 8 8 9 9 8 8 7 7 8 8 8 8 8 8 7 7 8 8 9 9 9 9 9 9 9 9 9 9 9 9 9 9 9 9 9 9 10 10 10 10 10 10 10 10 10 10 11 11
6 7 8 8 8 8 8 8 8 8 8 8 8 8 8 8 8 8 8 8 8 8 8 8 8 8 8 8 8 7 7 6 6 7 7 7 7 7 7 8 8 7 7 6 6 7 7 8 8 8 8 8 7 7 7 8 8 9 9 9 9 9 9 9 9 9 9 9 9 9 9 9 9 9 9 9 9 9 10 10 10 10 10 10 10
6 7 7 8 8 8 8 8 8 8 8 8 8 8 8 8 8 7 7 7 7 7 7 7 7 7 7 7 7 7 6 6 5 6 6 6 6 7 7 7 7 6 6 6 6 6 6 6 7 7 7 7 7 7 7 7 8 9 9 9 9 9 9 9 9 9 8 8 8 8 8 8 9 9 9 9 9 9 9 9 10 10 10 10 10
6 7 7 7 8 8 8 8 8 8 8 8 8 8 8 7 7 7 7 7 7 7 7 7 7 6 6 6 6 6 5 5 5 5 5 6 6 6 6 6 6 6 6 6 5 5 5 5 5 6 6 6 6 7 6 6 7 8 8 8 8 8 8 8 8 8 8 8 8 8 8 8 8 8 9 9 9 9 9 9 9 9 10 10 10
6 7 7 7 7 7 7 7 8 7 7 7 7 7 7 7 6 6 6 6 6 6 6 6 6 6 6 6 6 6 5 5 5 5 5 5 5 6 6 6 6 5 5 5 5 5 5 5 5 5 5 6 6 6 6 6 7 7 7 7 7 7 7 6 6 7 7 7 7 7 7 7 7 7 8 8 8 8 8 8 9 9 9 9 9
6 7 7 7 7 7 7 7 7 7 7 7 7 7 6 6 6 6 6 6 6 6 6 6 6 6 6 6 5 5 5 4 4 5 5 5 5 5 5 5 5 5 4 4 4 4 4 4 5 5 5 5 5 6 6 6 6 6 6 6 6 6 6 5 6 6 6 6 6 6 7 7 7 7 7 7 7 7 8 8 8 8 9 9 9
7 7 7 7 7 7 6 7 7 7 7 7 7 6 6 6 5 5 6 6 6 6 6 6 6 5 5 5 5 5 5 4 4 4 4 4 5 5 5 5 5 4 4 4 4 4 4 4 4 4 4 4 4 5 5 6 6 6 6 6 7 6 5 5 5 5 6 6 6 6 6 6 6 7 7 7 7 7 7 7 7 8 8 9 9
7 7 7 7 6 6 6 6 6 7 7 6 6 6 5 5 5 5 6 6 6 5 5 5 5 5 5 5 5 5 5 4 4 4 4 4 4 4 5 5 4 4 4 4 4 3 3 3 3 3 3 3 3 4 4 4 5 5 5 5 6 5 4 4 5 5 5 5 5 5 6 6 6 6 6 6 6 6 6 6 6 7 7 8 9
7 6 6 6 6 6 6 6 6 6 6 6 6 5 5 5 5 5 5 5 5 5 5 5 5 5 5 5 5 5 4 4 4 4 4 4 4 4 5 4 4 3 4 3 3 3 3 2 2 2 2 3 3 3 3 3 3 3 3 4 4 3 3 3 4 4 4 4 4 4 5 5 5 5 5 5 5 5 5 6 6 6 6 6 7
6 6 6 5 6 6 6 6 6 6 6 6 5 5 5 5 5 5 5 5 5 5 5 5 5 5 4 4 4 4 4 4 3 3 4 4 4 4 4 4 3 3 3 3 3 2 2 2 2 2 2 2 3 3 3 3 3 3 2 2 2 2 3 3 3 3 4 4 4 4 4 4 4 4 4 4 4 4 4 4 5 5 5 5 5
5 5 5 5 5 5 5 5 6 5 5 5 5 5 5 5 5 5 5 5 5 5 5 5 5 5 4 4 4 4 3 3 3 3 4 4 4 4 4 3 3 3 3 3 2 2 1 1 1 1 2 2 2 2 2 2 2 2 2 2 2 2 2 2 2 3 3 3 3 3 3 3 3 3 3 2 2 2 2 2 3 3 3 4 4
5 5 5 5 5 5 5 5 5 5 5 5 5 5 5 5 5 5 5 5 5 5 4 4 4 4 4 3 3 3 3 3 3 3 3 3 3 3 3 3 3 3 3 2 1 1 1 1 1 1 1 1 1 2 2 2 2 2 2 2 2 2 2 2 2 2 2 2 2 2 2 1 1 1 1 1 1 1 1 1 1 2 2 2 3
5 5 5 5 5 5 5 5 5 5 5 5 5 5 5 5 5 5 5 5 5 4 4 4 4 4 4 3 3 3 2 2 2 2 2 3 3 2 2 2 2 2 2 2 1 1 1 0 1 1 1 1 1 1 1 1 1 2 2 2 2 2 2 2 2 2 2 1 1 1 1 0 0 0 1 1 0 1 1 1 1 1 1 1 2
5 5 5 5 5 5 5 5 5 5 5 5 5 5 5 5 4 4 4 4 4 4 4 4 4 4 4 3 3 2 2 2 2 2 2 2 2 2 2 2 2 2 2 2 1 1 1 1 1 1 1 1 1 1 1 1 1 1 1 1 1 1 1 1 1 1 1 1 1 1 1 0 0 0 0 1 1 1 1 1 1 1 1 1 1
6 6 6 5 5 5 5 5 5 4 5 5 5 4 4 4 4 4 4 4 4 4 3 3 4 4 3 3 2 2 2 3 2 2 2 2 2 2 2 2 2 2 2 2 2 2 2 2 2 2 1 1 1 0 0 -0 0 0 1 1 1 1 1 1 1 1 0 0 1 1 0 0 0 0 1 1 1 1 0 1 1 1 1 1 1
6 6 6 5 5 5 5 5 5 4 4 4 4 4 4 4 4 3 3 3 3 3 3 3 3 3 2 2 2 2 2 2 2 2 2 2 2 2 2 2 2 2 2 2 2 2 2 2 2 1 1 1 1 0 -0 -0 -0 -0 -0 0 0 0 0 0 0 0 0 0 0 1 0 0 1 1 1 1 1 1 0 0 0 0 0 0 1
5 5 5 5 5 5 5 5 4 4 4 4 4 3 3 3 3 3 3 3 3 3 3 3 2 2 2 2 2 2 2 1 1 1 1 2 2 2 2 2 2 2 2 2 2 2 2 2 2 2 2 2 2 1 0 -0 -1 -1 -1 -1 -0 -0 -0 0 0 0 0 0 0 0 1 1 1 1 1 1 1 1 0 0 -0 -0 -0 0 0
5 5 5 5 4 4 4 4 4 4 4 4 3 3 2 2 3 3 2 2 2 2 2 2 2 2 2 2 2 1 1 1 0 1 1 1 1 2 2 2 1 1 2 2 2 3 3 3 3 3 2 2 1 1 -0 -1 -1 -1 -1 -1 -1 -1 -0 -0 -0 -0 -0 0 0 0 0 0 1 1 1 1 1 1 0 0 0 -0 -0 0 -0
5 5 4 4 4 4 4 4 4 4 4 4 3 3 2 2 2 2 2 2 2 2 2 2 2 2 2 2 1 1 1 0 0 0 1 1 1 1 1 1 1 1 2 2 3 3 3 3 2 2 1 1 -0 -1 -1 -1 -1 -1 -1 -1 -1 -1 -1 -0 -0 -0 -0 0 0 0 0 0 0 0 1 1 1 0 0 0 0 -0 -0 -0 -0
4 4 4 4 4 4 4 4 4 4 3 3 3 3 3 2 2 2 2 2 2 2 2 2 2 1 2 2 1 1 1 0 0 0 1 1 1 1 1 1 1 1 2 2 3 3 2 2 1 1 -0 -1 -1 -2 -2 -2 -2 -1 -1 -1 -1 -1 -1 -0 -0 -0 -0 0 0 0 0 0 0 0 0 0 0 0 0 0 0 -0 -0 -0 -0
4 4 3 3 3 3 4 4 3 3 3 3 3 3 3 3 2 1 1 1 1 1 1 1 1 1 1 1 1 1 1 0 0 1 1 1 1 1 1 1 1 1 2 2 2 2 2 1 1 0 -0 -1 -2 -2 -2 -2 -2 -2 -1 -1 -1 -1 -1 -0 -0 -0 -0 -0 0 0 0 0 0 -0 -0 0 0 0 0 0 -0 -0 -1 -1 -1
4 4 3 3 3 3 3 3 3 3 3 3 3 3 3 3 2 1 0 0 0 0 0 0 1 1 1 1 1 1 1 1 1 1 1 1 1 1 1 1 1 1 2 2 2 2 1 1 1 0 -0 -1 -1 -2 -2 -2 -2 -2 -1 -1 -1 -1 -1 -1 -0 -0 -0 -0 -0 0 0 0 -0 -0 -0 -0 -0 0 0 -0 -0 -1 -1 -1 -1
3 3 3 3 3 3 3 2 2 2 2 2 2 2 2 2 1 1 1 1 0 0 0 0 0 0 1 1 1 1 1 1 1 1 1 1 1 1 1 1 1 1 1 2 2 1 1 1 0 0 -0 -1 -1 -1 -1 -2 -2 -2 -2 -2 -1 -1 -1 -1 -1 -0 -0 -0 -0 -0 -0 -0 -0 -0 -0 -0 -0 -0 -0 -0 -0 -1 -1 -1 -1
3 3 2 2 3 2 2 2 2 2 1 1 1 1 1 1 1 1 1 1 1 1 0 0 0 0 0 1 1 1 1 1 1 1 1 1 0 1 1 1 1 1 1 1 1 1 1 1 0 0 -0 -0 -1 -1 -1 -1 -1 -2 -2 -2 -2 -2 -1 -1 -1 -1 -1 -0 -0 -0 -0 -0 -0 -0 -0 -1 -1 -1 -1 -1 -1 -1 -1 -1 -1
2 2 2 2 2 2 2 2 2 1 1 1 0 0 0 0 0 1 1 1 1 1 1 0 0 0 0 0 0 0 0 0 0 1 1 1 1 1 1 1 1 1 1 0 0 0 0 0 0 0 -0 -0 -0 -1 -1 -1 -1 -1 -1 -2 -2 -2 -2 -1 -1 -1 -1 -1 -1 -1 -0 -0 -0 -0 -0 -1 -1 -1 -1 -1 -1 -1 -1 -1 -1
2 2 2 1 1 1 1 1 1 1 1 0 0 0 0 0 0 1 1 1 1 1 1 0 0 0 0 0 0 0 0 0 0 1 1 1 1 1 1 1 0 0 0 0 -0 -0 -0 -0 0 0 0 -0 -0 -0 -0 -1 -1 -1 -1 -1 -2 -2 -2 -2 -1 -1 -1 -1 -1 -1 -1 -1 -1 -1 -1 -1 -1 -1 -1 -1 -1 -1 -1 -1 -1
2 2 2 1 1 1 1 1 1 1 1 1 0 0 0 0 0 0 0 0 0 0 0 0 0 0 0 0 0 0 0 0 0 0 0 0 1 1 0 0 0 0 -0 -0 -0 -0 -0 -0 -0 -0 -0 -0 -0 -0 -0 -0 -0 -1 -1 -1 -1 -1 -2 -2 -1 -1 -1 -1 -1 -1 -1 -1 -1 -1 -1 -1 -1 -1 -1 -1 -1 -1 -1 -1 -1
2 2 1 1 1 1 1 1 1 1 1 1 1 0 0 0 0 0 0 0 0 0 0 0 0 0 0 0 -0 -0 -0 0 0 0 0 0 0 -0 -0 -0 -0 -0 -0 -1 -1 -1 -1 -1 -1 -1 -1 -0 -0 -0 -0 -0 -0 -0 -0 -1 -1 -1 -1 -1 -1 -2 -2 -1 -1 -1 -1 -1 -1 -1 -1 -1 -1 -1 -1 -1 -1 -1 -1 -1 -1
2 1 1 1 1 1 1 1 1 1 1 1 1 1 0 0 0 0 0 0 0 0 0 0 0 0 0 0 -0 -0 -0 -0 -0 -0 -0 -0 -0 -1 -1 -1 -0 -1 -1 -1 -1 -1 -1 -1 -1 -1 -1 -1 -0 -0 -0 -0 -0 -0 -0 -0 -0 -1 -1 -1 -1 -1 -2 -2 -2 -2 -1 -1 -1 -1 -1 -1 -1 -1 -1 -1 -1 -1 -1 -1 -1
1 1 1 1 1 1 1 1 1 1 1 1 1 1 1 1 1 0 0 0 0 0 0 0 0 0 0 0 0 -0 -0 -0 -0 -0 -0 -1 -1 -1 -1 -1 -1 -1 -1 -1 -1 -1 -1 -1 -1 -1 -1 -1 -1 -1 -1 -1 -0 -0 -0 -0 -0 -1 -1 -1 -1 -1 -1 -2 -2 -2 -2 -2 -1 -1 -1 -1 -1 -1 -1 -1 -1 -1 -1 -1 -1
2 2 1 1 1 1 1 1 1 1 1 1 1 1 1 1 1 1 1 1 1 1 1 1 1 0 0 0 0 0 0 -0 -0 -0 -1 -1 -1 -1 -1 -1 -1 -1 -1 -1 -1 -1 -2 -2 -2 -2 -2 -1 -1 -1 -1 -1 -1 -1 -1 -1 -0 -1 -1 -1 -1 -1 -1 -1 -1 -2 -2 -2 -2 -1 -1 -1 -1 -1 -1 -1 -1 -1 -1 -1 -1
2 2 1 1 1 1 1 1 1 1 1 1 1 1 1 1 1 1 1 1 1 1 1 1 1 1 1 1 0 0 0 0 -0 -0 -0 -0 -1 -1 -1 -1 -1 -1 -1 -1 -1 -1 -2 -2 -2 -2 -2 -2 -2 -2 -1 -1 -1 -1 -1 -1 -1 -1 -1 -1 -1 -1 -1 -1 -1 -1 -2 -2 -2 -2 -2 -1 -1 -1 -1 -1 -1 -2 -2 -2 -2
2 2 1 1 1 1 1 1 1 1 1 1 1 1 1 1 1 1 1 1 1 1 1 1 1 1 1 1 1 1 0 0 0 -0 -0 -0 -0 -1 -1 -1 -1 -1 -1 -1 -1 -1 -2 -2 -2 -2 -2 -2 -2 -2 -2 -2 -2 -1 -1 -1 -1 -1 -1 -1 -1 -1 -1 -1 -1 -1 -1 -2 -2 -2 -2 -2 -2 -2 -2 -2 -2 -2 -2 -2 -2
2 2 1 1 1 1 1 1 1 1 1 1 1 1 1 1 1 1 1 1 1 1 1 1 1 1 1 1 1 1 1 0 0 0 -0 -0 -0 -0 -0 -1 -1 -1 -1 -1 -1 -2 -2 -2 -2 -2 -2 -2 -2 -2 -2 -2 -2 -2 -2 -1 -1 -1 -1 -1 -1 -1 -1 -1 -1 -1 -1 -1 -2 -2 -2 -2 -2 -2 -2 -2 -2 -2 -2 -2 -2
2 1 1 1 1 1 1 1 1 1 1 1 1 1 1 1 1 1 1 1 1 1 1 1 1 1 1 1 1 1 1 1 0 0 -0 -0 -0 -0 -0 -0 -1 -1 -1 -1 -1 -2 -2 -2 -2 -2 -2 -2 -2 -2 -2 -2 -2 -2 -2 -2 -2 -2 -1 -1 -1 -1 -1 -1 -1 -1 -1 -1 -1 -2 -2 -2 -2 -2 -2 -2 -2 -2 -2 -2 -2
2 2 2 2 2 2 1 1 2 2 1 1 1 1 1 1 1 1 1 2 2 2 2 2 2 1 1 1 1 1 1 1 0 0 0 -0 -0 -0 -0 -0 -0 -1 -1 -1 -1 -1 -1 -2 -2 -2 -2 -2 -2 -2 -2 -2 -2 -2 -2 -2 -2 -2 -2 -2 -2 -1 -1 -1 -1 -1 -1 -1 -1 -1 -1 -2 -2 -2 -2 -2 -2 -2 -2 -2 -2
2 2 2 2 2 2 2 2 2 2 2 2 2 1 2 2 2 2 2 2 2 2 2 2 2 1 1 1 1 1 1 1 1 0 0 0 -0 -0 -0 -0 -0 -0 -1 -1 -1 -1 -1 -1 -1 -2 -2 -2 -2 -2 -2 -2 -2 -2 -2 -2 -2 -2 -2 -2 -2 -2 -2 -2 -1 -1 -1 -1 -1 -1 -1 -1 -2 -2 -2 -2 -3 -3 -3 -2 -2
2 2 2 2 2 2 2 2 2 2 2 2 2 2 2 2 2 2 2 2 2 2 2 2 2 1 1 1 1 1 1 1 1 0 0 0 -0 -0 -0 -0 -0 -0 -0 -1 -1 -1 -1 -1 -1 -1 -1 -1 -1 -1 -1 -1 -1 -1 -1 -2 -2 -2 -2 -2 -2 -2 -2 -2 -2 -2 -2 -1 -1 -1 -1 -1 -1 -2 -2 -2 -2 -3 -3 -3 -3
2 2 2 2 2 2 2 2 2 2 2 2 2 2 2 2 2 2 2 2 2 2 2 2 2 1 1 1 1 1 1 1 1 1 1 0 0 0 -0 -0 -0 -0 -0 -0 -0 -0 -0 -0 -1 -1 -1 -1 -1 -1 -1 -1 -1 -1 -1 -1 -1 -2 -2 -2 -2 -2 -2 -2 -2 -2 -2 -2 -2 -2 -1 -1 -1 -2 -2 -2 -2 -2 -3 -3 -3
2 2 2 2 2 2 2 2 2 2 2 2 2 2 2 2 2 2 2 2 2 2 2 2 2 2 2 1 1 1 1 1 1 1 1 1 1 0 0 -0 -0 -0 -0 -0 -0 -0 -0 -0 -0 -0 -0 -1 -1 -1 -1 -1 -1 -1 -1 -1 -1 -1 -2 -2 -2 -2 -2 -2 -2 -2 -2 -2 -2 -2 -2 -2 -2 -2 -2 -2 -2 -2 -3 -3 -3
Height
1532 1532 1532 1532 1532 1532 1532 1533 1532 1532 1532 1532 1532 1531 1531 1530 1529 1529 1528 1528 1528 1527 1526 1524 1523 1521 1520 1518 1517 1515 1513 1512 1510 1508 1506 1505 1503 1500 1498 1497 1495 1493 1492 1491 1490 1487 1485 1484 1482 1480 1479 1478 1476 1475 1473 1472 1472 1471 1471 1471 1472 1473 1474 1476 1476 1477 1478 1479 1480 1482 1484 1486 1486 1487 1489 1490 1492 1494 1496 1499 1501 1503 1506 1507 1509
1532 1532 1532 1532 1532 1532 1532 1533 1532 1533 1533 1532 1532 1531 1531 1530 1529 1529 1528 1528 1527 1527 1526 1524 1523 1522 1520 1519 1517 1515 1513 1512 1510 1509 1507 1505 1503 1501 1499 1497 1495 1494 1492 1491 1490 1488 1486 1484 1482 1480 1479 1478 1476 1475 1473 1472 1471 1470 1469 1470 1470 1471 1472 1474 1474 1475 1476 1477 1477 1479 1482 1483 1484 1484 1486 1487 1489 1491 1493 1495 1497 1500 1502 1504 1505
1532 1532 1532 1532 1532 1532 1532 1533 1533 1533 1533 1533 1532 1531 1530 1530 1530 1529 1529 1528 1528 1527 1526 1525 1523 1522 1521 1519 1517 1516 1514 1513 1511 1509 1507 1505 1503 1501 1500 1498 1496 1495 1493 1491 1490 1488 1486 1484 1482 1481 1480 1478 1476 1474 1473 1472 1471 1470 1469 1469 1469 1470 1471 1472 1473 1474 1475 1475 1476 1477 1479 1481 1481 1482 1483 1484 1486 1488 1489 1491 1494 1496 1498 1500 1501
1532 1532 1532 1532 1532 1532 1532 1533 1533 1533 1533 1532 1532 1531 1531 1530 1530 1530 1529 1529 1528 1527 1526 1525 1524 1523 1521 1519 1518 1516 1515 1513 1511 1509 1507 1506 1504 1502 1500 1498 1497 1495 1494 1492 1490 1489 1487 1485 1483 1482 1480 1478 1476 1475 1473 1472 1471 1470 1469 1468 1469 1469 1470 1471 1471 1472 1473 1474 1474 1475 1477 1478 1479 1480 1481 1482 1483 1484 1486 1488 1490 1493 1494 1496 1499
1532 1532 1532 1531 1532 1532 1532 1533 1533 1533 1533 1532 1532 1531 1531 1531 1531 1531 1531 1530 1529 1528 1527 1526 1524 1523 1521 1519 1518 1517 1515 1514 1512 1510 1508 1506 1505 1503 1501 1499 1498 1496 1495 1493 1491 1489 1487 1486 1484 1482 1480 1479 1477 1475 1474 1473 1471 1470 1469 1468 1469 1469 1469 1470 1470 1471 1472 1472 1473 1474 1475 1476 1476 1477 1478 1479 1480 1481 1482 1484 1487 1489 1491 1493 1497
1532 1531 1531 1531 1532 1532 1533 1533 1533 1533 1533 1532 1532 1532 1532 1532 1532 1532 1531 1531 1530 1529 1527 1526 1525 1523 1522 1520 1519 1517 1516 1514 1513 1511 1509 1508 1506 1504 1503 1501 1499 1497 1496 1494 1492 1490 1488 1487 1485 1483 1481 1479 1477 1476 1475 1473 1472 1471 1470 1469 1469 1469 1469 1469 1469 1470 1471 1471 1472 1473 1474 1474 1474 1474 1474 1476 1477 1477 1479 1481 1484 1486 1488 1490 1493
1532 1532 1532 1532 1532 1533 1533 1533 1533 1533 1533 1532 1533 1533 1533 1533 1533 1532 1532 1531 1530 1529 1528 1526 1525 1524 1523 1521 1520 1518 1517 1515 1514 1512 1510 1509 1507 1506 1504 1502 1501 1499 1497 1495 1493 1491 1490 1488 1486 1484 1482 1480 1478 1477 1476 1474 1473 1472 1471 1470 1470 1469 1469 1469 1469 1469 1470 1470 1471 1472 1473 1473 1472 1472 1472 1474 1475 1476 1477 1479 1481 1482 1484 1487 1490
1532 1532 1532 1532 1533 1533 1533 1533 1533 1533 1533 1533 1533 1534 1534 1534 1533 1533 1532 1531 1531 1529 1528 1527 1526 1524 1523 1522 1521 1519 1518 1516 1514 1513 1512 1510 1509 1507 1506 1504 1502 1500 1498 1496 1494 1493 1491 1489 1487 1486 1484 1482 1480 1478 1476 1475 1474 1473 1471 1470 1470 1469 1469 1468 1468 1468 1469 1470 1470 1471 1471 1471 1471 1471 1472 1472 1473 1474 1475 1476 1478 1479 1481 1484 1487
1532 1532 1533 1533 1533 1533 1533 1533 1533 1533 1534 1534 1534 1535 1534 1534 1534 1533 1533 1532 1531 1530 1529 1528 1526 1525 1524 1523 1521 1520 1519 1517 1515 1514 1513 1511 1510 1509 1507 1505 1503 1502 1500 1498 1496 1494 1493 1491 1489 1488 1486 1484 1482 1480 1478 1476 1474 1473 1472 1471 1470 1469 1469 1468 1468 1468 1469 1469 1470 1469 1470 1470 1470 1470 1471 1471 1472 1472 1473 1474 1475 1477 1478 1481 1483
1533 1533 1533 1533 1533 1533 1534 1534 1534 1534 1534 1535 1535 1535 1535 1535 1534 1534 1533 1532 1532 1531 1530 1529 1527 1526 1525 1523 1522 1521 1519 1518 1517 1516 1515 1513 1512 1510 1508 1507 1505 1503 1501 1499 1497 1496 1494 1493 1491 1490 1488 1486 1484 1481 1480 1478 1476 1474 1473 1471 1470 1469 1469 1468 1468 1468 1469 1469 1469 1469 1469 1469 1469 1470 1470 1471 1471 1472 1472 1473 1474 1475 1477 1478 1480
1533 1533 1533 1533 1534 1534 1534 1534 1534 1535 1535 1536 1536 1536 1536 1535 1535 1534 1534 1533 1533 1532 1531 1530 1528 1527 1526 1525 1523 1522 1520 1520 1519 1518 1516 1515 1513 1512 1510 1508 1506 1504 1503 1501 1500 1498 1496 1495 1493 1491 1488 1487 1485 1483 1481 1480 1478 1477 1475 1473 1471 1470 1469 1468 1468 1468 1468 1469 1469 1469 1469 1469 1469 1469 1469 1469 1470 1470 1471 1471 1472 1473 1474 1475 1476
1533 1533 1533 1534 1534 1535 1535 1535 1535 1536 1536 1536 1536 1536 1536 1536 1536 1535 1535 1534 1534 1533 1532 1531 1530 1529 1527 1526 1524 1523 1522 1522 1521 1520 1518 1517 1515 1513 1511 1510 1508 1506 1504 1503 1502 1500 1498 1497 1495 1492 1490 1489 1487 1486 1484 1482 1481 1479 1477 1475 1473 1472 1471 1470 1469 1469 1469 1469 1469 1469 1469 1469 1469 1469 1468 1468 1468 1469 1469 1469 1470 1470 1471 1472 1473
1533 1533 1534 1534 1535 1535 1535 1536 1536 1536 1537 1537 1537 1537 1537 1537 1537 1536 1536 1535 1535 1534 1533 1532 1531 1530 1528 1527 1526 1525 1524 1523 1523 1521 1520 1519 1517 1515 1513 1511 1509 1507 1506 1504 1503 1501 1500 1498 1496 1494 1492 1491 1489 1488 1487 1485 1483 1482 1480 1478 1476 1475 1473 1472 1472 1471 1470 1470 1470 1470 1469 1469 1468 1468 1468 1468 1468 1468 1468 1468 1467 1468 1468 1469 1470
1533 1533 1534 1535 1535 1536 1536 1537 1537 1537 1537 1538 1538 1538 1538 1538 1538 1537 1537 1537 1536 1535 1534 1533 1532 1531 1530 1529 1527 1526 1525 1525 1524 1523 1522 1520 1518 1517 1515 1513 1511 1509 1508 1506 1505 1503 1501 1499 1497 1496 1494 1492 1490 1489 1488 1487 1485 1484 1482 1480 1478 1477 1476 1474 1474 1473 1472 1471 1471 1470 1470 1469 1468 1468 1468 1467 1467 1466 1466 1467 1466 1467 1467 1468 1469
1533 1534 1534 1535 1536 1537 1537 1538 1538 1538 1538 1539 1539 1539 1539 1539 1539 1539 1538 1538 1537 1536 1535 1534 1533 1532 1531 1530 1529 1528 1527 1527 1526 1525 1523 1522 1520 1518 1516 1515 1513 1511 1509 1508 1506 1505 1503 1502 1500 1498 1496 1494 1493 1491 1490 1489 1488 1486 1484 1482 1480 1479 1477 1476 1475 1474 1474 1473 1472 1471 1471 1470 1469 1468 1467 1466 1465 1465 1465 1465 1465 1466 1465 1465 1467
1533 1534 1535 1536 1537 1538 1538 1539 1539 1539 1539 1540 1540 1540 1540 1540 1540 1540 1540 1539 1538 1537 1536 1535 1535 1534 1533 1532 1531 1530 1529 1529 1528 1527 1525 1524 1522 1520 1518 1516 1514 1513 1511 1509 1508 1507 1505 1504 1502 1501 1499 1497 1496 1494 1492 1491 1489 1488 1486 1484 1483 1481 1480 1479 1478 1477 1477 1476 1475 1474 1473 1472 1471 1469 1467 1466 1465 1463 1463 1463 1464 1464 1463 1462 1464
1533 1534 1535 1536 1537 1539 1540 1540 1540 1540 1540 1540 1541 1541 1541 1541 1541 1541 1541 1540 1540 1539 1538 1537 1536 1535 1535 1534 1533 1532 1531 1531 1530 1528 1527 1525 1523 1521 1520 1518 1516 1514 1513 1511 1510 1508 1507 1505 1504 1503 1501 1499 1498 1497 1495 1493 1491 1490 1488 1487 1485 1484 1483 1482 1482 1480 1480 1479 1478 1476 1476 1474 1472 1470 1469 1467 1466 1464 1463 1463 1463 1463 1463 1462 1463
1534 1535 1536 1537 1538 1540 1541 1541 1541 1541 1541 1542 1542 1542 1542 1542 1542 1543 1543 1542 1541 1540 1539 1539 1538 1537 1536 1535 1534 1534 1533 1532 1532 1530 1529 1527 1525 1523 1522 1520 1518 1516 1515 1514 1512 1511 1509 1508 1506 1504 1503 1501 1500 1498 1496 1495 1493 1491 1490 1488 1487 1485 1485 1485 1484 1483 1482 1481 1479 1477 1476 1474 1472 1471 1469 1468 1467 1466 1465 1464 1463 1463 1463 1464 1464
1535 1536 1537 1538 1539 1541 1541 1542 1542 1542 1542 1543 1543 1543 1543 1543 1544 1544 1544 1543 1542 1542 1541 1540 1539 1538 1538 1537 1536 1535 1534 1534 1533 1532 1530 1529 1527 1526 1524 1522 1520 1519 1518 1516 1515 1513 1512 1510 1509 1507 1506 1504 1502 1500 1498 1496 1494 1493 1492 1490 1488 1487 1487 1487 1486 1484 1483 1481 1479 1478 1476 1474 1473 1472 1471 1470 1469 1468 1467 1466 1464 1464 1463 1464 1465
1536 1537 1538 1539 1540 1542 1542 1543 1543 1543 1544 1544 1544 1545 1545 1545 1545 1546 1545 1545 1544 1543 1543 1542 1541 1540 1539 1539 1538 1537 1536 1535 1534 1533 1532 1530 1529 1527 1525 1523 1522 1521 1520 1518 1517 1515 1514 1513 1511 1510 1509 1507 1505 1503 1500 1498 1497 1495 1494 1492 1491 1491 1491 1490 1488 1486 1484 1483 1481 1480 1478 1476 1475 1473 1472 1472 1471 1470 1469 1467 1466 1466 1465 1464 1465
1537 1538 1539 1540 1541 1542 1543 1544 1544 1545 1545 1546 1546 1546 1546 1546 1547 1547 1547 1546 1546 1545 1544 1543 1542 1542 1541 1541 1540 1539 1538 1537 1536 1535 1533 1532 1530 1529 1527 1525 1525 1524 1522 1520 1519 1517 1516 1515 1514 1513 1512 1510 1508 1505 1503 1502 1500 1498 1496 1495 1495 1495 1494 1492 1490 1488 1487 1485 1483 1482 1480 1478 1476 1475 1474 1474 1473 1472 1471 1470 1469 1468 1467 1467 1465
1538 1539 1540 1542 1543 1543 1544 1545 1545 1546 1546 1547 1547 1547 1547 1548 1548 1548 1548 1547 1547 1546 1545 1545 1544 1543 1543 1542 1541 1540 1540 1539 1538 1536 1535 1534 1532 1531 1529 1528 1527 1526 1524 1522 1521 1520 1519 1518 1517 1516 1515 1512 1510 1508 1507 1505 1503 1501 1500 1499 1498 1497 1495 1493 1492 1490 1488 1486 1485 1483 1481 1479 1478 1477 1476 1475 1474 1474 1473 1473 1472 1471 1470 1469 1468
1539 1540 1541 1542 1543 1544 1545 1546 1546 1547 1548 1548 1549 1548 1549 1550 1550 1550 1549 1549 1548 1547 1547 1546 1546 1545 1544 1544 1543 1542 1542 1541 1540 1538 1537 1536 1534 1533 1532 1530 1529 1528 1526 1524 1523 1522 1522 1521 1520 1519 1517 1515 1513 1511 1509 1507 1505 1504 1503 1502 1500 1499 1497 1495 1493 1491 1490 1488 1486 1484 1483 1482 1480 1479 1479 1478 1477 1476 1475 1475 1474 1473 1472 1471 1470
1540 1541 1542 1543 1544 1545 1546 1547 1548 1548 1549 1549 1550 1550 1550 1551 1551 1551 1550 1550 1549 1548 1548 1548 1547 1546 1546 1545 1544 1544 1543 1542 1542 1540 1539 1538 1537 1535 1534 1533 1531 1530 1528 1527 1526 1525 1524 1523 1522 1521 1519 1517 1515 1513 1511 1509 1508 1507 1506 1504 1502 1500 1498 1496 1495 1493 1491 1490 1488 1487 1486 1485 1484 1483 1482 1481 1480 1479 1478 1476 1475 1474 1473 1472 1471
1540 1542 1543 1544 1545 1546 1547 1548 1549 1549 1550 1550 1551 1551 1552 1552 1552 1552 1552 1551 1550 1550 1549 1549 1548 1548 1547 1547 1546 1546 1545 1545 1544 1543 1542 1541 1539 1538 1537 1535 1534 1533 1531 1529 1528 1527 1527 1525 1524 1522 1521 1519 1517 1515 1513 1512 1510 1509 1507 1506 1504 1502 1500 1499 1497 1495 1494 1493 1492 1491 1490 1489 1488 1487 1486 1485 1484 1482 1480 1479 1478 1476 1475 1474 1474
1541 1543 1544 1545 1546 1547 1548 1548 1549 1550 1551 1552 1552 1553 1553 1553 1553 1553 1553 1552 1552 1551 1551 1550 1550 1549 1549 1548 1548 1548 1547 1547 1546 1545 1544 1543 1542 1541 1539 1538 1536 1535 1534 1532 1531 1530 1529 1528 1526 1524 1522 1520 1519 1517 1515 1514 1513 1511 1509 1508 1506 1504 1503 1501 1500 1498 1497 1496 1495 1494 1493 1492 1491 1490 1489 1488 1486 1484 1482 1481 1480 1479 1478 1477 1476
1542 1543 1544 1545 1546 1547 1548 1549 1550 1551 1552 1553 1553 1554 1554 1555 1554 1554 1554 1554 1553 1553 1552 1552 1552 1551 1551 1551 1551 1550 1549 1548 1548 1547 1546 1545 1544 1543 1541 1540 1539 1537 1536 1535 1533 1532 1531 1529 1528 1526 1525 1523 1521 1519 1518 1516 1515 1513 1512 1510 1509 1508 1506 1505 1504 1502 1501 1500 1499 1498 1497 1496 1494 1492 1491 1490 1488 1486 1485 1484 1482 1481 1481 1480 1478
1543 1544 1545 1546 1547 1548 1549 1550 1551 1551 1552 1554 1554 1555 1556 1556 1556 1555 1555 1555 1555 1554 1554 1554 1553 1553 1552 1553 1552 1552 1551 1550 1549 1548 1548 1547 1546 1545 1543 1542 1540 1539 1537 1536 1535 1534 1533 1531 1529 1528 1526 1524 1522 1521 1519 1518 1517 1516 1515 1514 1512 1511 1510 1509 1507 1505 1504 1503 1502 1501 1500 1498 1496 1494 1493 1492 1491 1489 1488 1487 1485 1484 1484 1483 1481
1544 1545 1546 1547 1548 1549 1550 1551 1552 1552 1553 1554 1555 1556 1557 1557 1557 1556 1556 1557 1556 1556 1555 1555 1555 1555 1554 1554 1554 1553 1552 1551 1550 1550 1550 1549 1548 1546 1545 1543 1542 1541 1540 1539 1538 1536 1534 1532 1530 1528 1527 1525 1523 1522 1521 1520 1520 1519 1518 1516 1515 1514 1512 1511 1509 1508 1507 1506 1505 1503 1502 1500 1499 1498 1496 1494 1493 1492 1491 1490 1489 1488 1487 1486 1485
1545 1546 1547 1548 1549 1550 1551 1552 1553 1554 1555 1555 1556 1557 1557 1558 1558 1558 1558 1558 1557 1557 1557 1556 1556 1556 1556 1556 1555 1554 1554 1553 1553 1553 1552 1551 1550 1548 1547 1546 1545 1544 1543 1542 1540 1538 1535 1533 1531 1530 1529 1527 1526 1525 1524 1523 1522 1521 1520 1519 1518 1516 1515 1514 1513 1512 1511 1509 1508 1506 1505 1503 1502 1500 1499 1497 1496 1495 1494 1493 1493 1492 1491 1490 1489
1545 1546 1548 1549 1550 1551 1552 1553 1554 1555 1556 1557 1557 1557 1557 1558 1559 1559 1559 1559 1558 1558 1558 1558 1558 1558 1558 1557 1556 1556 1556 1555 1555 1555 1554 1553 1552 1551 1549 1548 1547 1546 1545 1544 1541 1538 1537 1535 1533 1532 1531 1530 1529 1528 1527 1526 1525 1524 1523 1522 1520 1519 1518 1517 1516 1515 1514 1512 1511 1509 1507 1506 1504 1503 1502 1501 1500 1499 1497 1497 1496 1495 1494 1494 1494
1546 1547 1549 1550 1551 1552 1553 1554 1555 1556 1557 1558 1559 1559 1559 1559 1559 1559 1560 1560 1559 1559 1559 1559 1559 1559 1559 1559 1558 1558 1558 1557 1557 1556 1556 1555 1554 1553 1551 1550 1549 1548 1547 1545 1542 1540 1539 1537 1536 1535 1534 1533 1532 1531 1530 1529 1528 1527 1526 1524 1523 1522 1521 1520 1519 1518 1517 1515 1514 1512 1510 1509 1508 1507 1506 1504 1503 1502 1500 1499 1499 1499 1498 1498 1498
1547 1548 1549 1550 1552 1553 1554 1555 1556 1557 1558 1559 1560 1560 1560 1560 1560 1559 1560 1560 1560 1560 1560 1561 1561 1561 1561 1561 1560 1560 1560 1559 1559 1558 1557 1557 1556 1555 1553 1552 1551 1550 1548 1546 1543 1542 1541 1540 1538 1538 1537 1535 1535 1534 1533 1532 1531 1530 1528 1527 1526 1525 1524 1523 1522 1521 1520 1518 1517 1515 1514 1513 1511 1510 1509 1507 1506 1505 1503 1502 1502 1502 1502 1502 1502
1549 1550 1551 1552 1552 1554 1555 1556 1557 1559 1560 1560 1561 1561 1562 1562 1561 1560 1560 1560 1561 1562 1562 1562 1563 1563 1562 1562 1562 1562 1561 1561 1560 1560 1559 1558 1557 1556 1555 1554 1552 1551 1549 1547 1545 1544 1543 1542 1541 1540 1539 1538 1537 1536 1535 1534 1533 1532 1531 1530 1529 1528 1527 1526 1524 1523 1522 1521 1520 1518 1517 1516 1514 1513 1512 1511 1509 1508 1507 1506 1506 1506 1505 1505 1505
1550 1551 1552 1553 1554 1555 1556 1557 1559 1560 1561 1561 1562 1563 1563 1563 1563 1562 1562 1562 1562 1563 1563 1564 1564 1564 1564 1564 1563 1563 1563 1562 1562 1561 1560 1560 1559 1558 1557 1555 1554 1552 1551 1549 1548 1547 1546 1544 1543 1542 1541 1540 1539 1538 1537 1535 1534 1533 1532 1531 1530 1530 1529 1528 1526 1525 1524 1523 1522 1521 1520 1519 1517 1516 1515 1514 1512 1511 1511 1510 1509 1509 1508 1508 1508
1551 1552 1553 1554 1555 1556 1557 1559 1560 1561 1562 1562 1563 1563 1564 1564 1564 1564 1564 1564 1564 1564 1565 1565 1565 1565 1565 1565 1565 1565 1564 1564 1563 1563 1562 1561 1560 1560 1558 1556 1555 1554 1552 1551 1550 1549 1548 1547 1546 1544 1543 1542 1541 1540 1539 1537 1536 1535 1534 1533 1532 1531 1530 1529 1528 1527 1526 1525 1524 1523 1522 1521 1520 1519 1518 1516 1515 1514 1514 1513 1513 1512 1512 1511 1511
1552 1552 1553 1555 1556 1557 1559 1560 1561 1562 1562 1563 1563 1564 1564 1565 1565 1565 1565 1565 1566 1566 1566 1566 1566 1567 1566 1566 1566 1566 1566 1565 1565 1564 1563 1562 1561 1560 1559 1557 1556 1555 1554 1553 1552 1551 1550 1549 1548 1547 1546 1544 1543 1542 1540 1539 1538 1537 1535 1534 1533 1532 1531 1530 1529 1529 1528 1527 1526 1525 1524 1523 1522 1521 1520 1519 1518 1517 1517 1516 1515 1515 1514 1514 1513
1552 1553 1554 1555 1557 1558 1559 1560 1561 1562 1563 1563 1564 1565 1565 1565 1566 1566 1566 1567 1567 1567 1568 1568 1568 1568 1568 1567 1567 1567 1567 1566 1566 1565 1564 1563 1562 1561 1560 1559 1558 1557 1556 1555 1554 1553 1552 1551 1550 1548 1547 1546 1545 1544 1542 1541 1540 1538 1537 1536 1535 1533 1533 1532 1531 1530 1529 1528 1528 1527 1526 1525 1524 1524 1523 1522 1521 1520 1519 1519 1518 1517 1517 1516 1516
1552 1554 1555 1556 1557 1559 1560 1561 1562 1563 1564 1564 1565 1565 1565 1566 1566 1566 1567 1567 1568 1568 1569 1569 1569 1569 1569 1568 1568 1568 1568 1567 1567 1566 1565 1564 1563 1562 1561 1560 1559 1558 1557 1556 1556 1554 1553 1552 1551 1550 1549 1548 1546 1545 1544 1542 1541 1540 1538 1537 1536 1535 1533 1532 1531 1531 1530 1529 1529 1528 1527 1527 1526 1525 1524 1524 1523 1522 1522 1521 1520 1519 1519 1518 1518
1552 1554 1555 1557 1558 1559 1561 1562 1563 1564 1564 1565 1565 1565 1566 1566 1567 1567 1568 1568 1569 1569 1569 1570 1570 1570 1570 1569 1569 1569 1568 1568 1567 1566 1566 1565 1564 1563 1562 1561 1560 1559 1558 1558 1557 1556 1555 1554 1553 1551 1550 1549 1548 1546 1545 1544 1542 1541 1540 1538 1537 1536 1534 1533 1532 1531 1530 1530 1529 1529 1528 1528 1527 1526 1526 1525 1524 1524 1523 1523 1522 1521 1521 1520 1520
1552 1554 1555 1557 1558 1560 1561 1562 1563 1564 1565 1565 1566 1566 1566 1567 1567 1568 1568 1569 1569 1570 1570 1570 1571 1570 1570 1570 1570 1569 1569 1568 1568 1567 1566 1565 1565 1564 1563 1562 1561 1560 1559 1559 1558 1557 1556 1555 1554 1553 1551 1550 1549 1548 1546 1545 1544 1542 1541 1540 1538 1537 1536 1534 1533 1532 1531 1530 1530 1529 1529 1528 1528 1527 1527 1526 1526 1525 1525 1524 1524 1523 1522 1522 1521
1552 1554 1555 1557 1558 1560 1561 1562 1563 1564 1565 1565 1566 1566 1567 1567 1568 1568 1569 1569 1570 1570 1570 1571 1571 1571 1571 1570 1570 1570 1569 1569 1568 1567 1566 1566 1565 1564 1563 1563 1562 1561 1560 1559 1558 1558 1557 1556 1555 1554 1553 1551 1550 1549 1547 1546 1545 1543 1542 1541 1539 1538 1537 1536 1534 1533 1532 1531 1531 1530 1529 1529 1528 1528 1528 1527 1527 1526 1526 1525 1525 1524 1524 1523 1522
1552 1554 1555 1557 1558 1560 1561 1562 1563 1564 1565 1565 1566 1566 1567 1568 1568 1569 1569 1570 1570 1570 1570 1571 1571 1571 1571 1570 1570 1570 1569 1569 1568 1567 1567 1566 1565 1564 1564 1563 1562 1561 1561 1560 1559 1558 1557 1557 1556 1555 1554 1552 1551 1550 1549 1547 1546 1544 1543 1542 1540 1539 1538 1537 1535 1534 1533 1532 1531 1530 1530 1529 1529 1528 1528 1528 1527 1527 1526 1526 1525 1525 1524 1524 1523
1552 1554 1555 1557 1558 1560 1561 1562 1563 1564 1564 1565 1566 1566 1567 1568 1568 1569 1569 1570 1570 1570 1570 1570 1570 1570 1570 1570 1570 1569 1569 1568 1568 1567 1567 1566 1565 1564 1564 1563 1562 1562 1561 1560 1559 1559 1558 1557 1556 1555 1554 1553 1552 1551 1550 1548 1547 1546 1544 1543 1542 1540 1539 1537 1536 1535 1534 1533 1532 1531 1530 1530 1529 1529 1528 1528 1527 1527 1527 1526 1526 1525 1525 1525 1524
1552 1554 1555 1556 1558 1559 1560 1561 1563 1563 1564 1565 1565 1566 1566 1567 1568 1568 1569 1569 1569 1570 1570 1570 1570 1570 1569 1569 1569 1569 1568 1568 1567 1567 1566 1566 1565 1564 1563 1563 1562 1561 1561 1560 1559 1559 1558 1557 1556 1555 1555 1554 1553 1551 1550 1549 1548 1547 1545 1544 1543 1541 1540 1538 1537 1536 1535 1534 1532 1531 1531 1530 1529 1529 1528 1528 1527 1527 1527 1526 1526 1526 1525 1525 1525
1552 1554 1555 1556 1558 1559 1560 1561 1562 1563 1563 1564 1564 1565 1566 1566 1567 1568 1568 1568 1569 1569 1569 1569 1569 1569 1568 1568 1568 1568 1567 1567 1567 1566 1566 1565 1564 1564 1563 1562 1562 1561 1560 1560 1559 1558 1558 1557 1556 1555 1554 1554 1553 1552 1551 1550 1549 1547 1546 1545 1544 1542 1541 1540 1538 1537 1536 1534 1533 1532 1531 1530 1529 1528 1528 1527 1527 1527 1526 1526 1526 1526 1525 1525 1525
1552 1553 1555 1556 1557 1558 1559 1560 1561 1562 1563 1563 1564 1565 1565 1566 1567 1567 1567 1568 1568 1568 1568 1568 1568 1567 1567 1567 1567 1567 1566 1566 1565 1565 1564 1564 1563 1563 1562 1562 1561 1560 1560 1559 1558 1558 1557 1556 1555 1555 1554 1553 1552 1551 1550 1550 1549 1548 1547 1545 1544 1543 1542 1540 1539 1538 1536 1535 1534 1532 1531 1530 1529 1528 1527 1527 1526 1526 1526 1526 1525 1525 1525 1525 1524
1551 1553 1554 1555 1556 1557 1558 1559 1560 1561 1562 1562 1563 1564 1564 1565 1566 1566 1566 1567 1567 1567 1567 1567 1566 1566 1566 1566 1566 1565 1565 1565 1564 1564 1563 1563 1562 1562 1561 1561 1560 1560 1559 1558 1557 1557 1556 1555 1555 1554 1553 1552 1552 1551 1550 1549 1548 1548 1547 1546 1545 1543 1542 1541 1540 1539 1537 1536 1534 1533 1532 1530 1529 1528 1527 1526 1525 1525 1524 1524 1524 1524 1524 1524 1524
1551 1552 1553 1554 1555 1556 1557 1558 1559 1560 1560 1561 1562 1563 1563 1564 1564 1565 1565 1565 1565 1565 1565 1565 1565 1565 1565 1564 1564 1564 1563 1563 1563 1562 1562 1561 1561 1560 1560 1560 1559 1558 1558 1557 1556 1556 1555 1554 1554 1553 1552 1552 1551 1550 1549 1549 1548 1547 1546 1545 1544 1543 1542 1541 1540 1539 1538 1536 1535 1534 1532 1531 1530 1528 1527 1526 1525 1524 1523 1523 1523 1523 1522 1522 1522
1550 1552 1553 1554 1555 1555 1556 1557 1558 1558 1559 1560 1561 1561 1562 1562 1563 1563 1563 1563 1563 1563 1563 1563 1563 1563 1563 1563 1562 1562 1562 1561 1561 1561 1560 1560 1559 1559 1559 1558 1558 1557 1557 1556 1555 1555 1554 1553 1553 1552 1551 1551 1550 1549 1548 1548 1547 1546 1545 1545 1544 1543 1542 1541 1540 1539 1538 1537 1535 1534 1533 1531 1530 1529 1527 1526 1525 1524 1523 1522 1521 1521 1521 1521 1520
1549 1550 1552 1553 1553 1554 1555 1556 1556 1557 1558 1558 1559 1559 1560 1560 1561 1561 1561 1561 1561 1561 1561 1561 1561 1561 1561 1561 1561 1561 1560 1560 1559 1559 1559 1558 1558 1557 1557 1556 1556 1556 1555 1554 1554 1554 1553 1552 1552 1551 1550 1550 1549 1548 1547 1547 1546 1545 1544 1543 1543 1542 1541 1540 1539 1538 1537 1536 1535 1534 1533 1531 1530 1529 1527 1526 1525 1523 1522 1521 1520 1520 1519 1519 1519
Wind_Speed
15 13 11 10 10 9 9 9 9 8 6 6 7 7 6 7 7 8 10 9 10 11 12 13 14 15 16 17 19 19 18 18 17 17 17 17 17 17 16 17 16 16 15 16 17 19 18 16 15 14 14 15 16 15 15 17 18 21 23 25 28 29 28 28 30 30 30 29 27 25 24 23 23 24 26 29 32 34 35 36 35 35 34 33 33
11 10 9 9 8 8 7 6 5 5 4 5 5 4 5 6 6 8 9 9 10 11 12 13 14 15 16 18 19 19 19 18 18 18 18 18 18 18 18 17 17 16 16 17 18 19 19 17 16 16 15 16 16 14 12 12 12 15 20 22 22 23 25 25 25 28 29 26 23 21 21 22 23 24 25 26 29 32 34 36 35 35 35 35 35
7 7 8 7 7 7 5 4 3 3 2 2 2 3 5 6 7 9 10 10 11 12 13 15 15 15 15 17 18 18 19 18 19 19 19 19 20 19 19 18 18 17 17 18 18 18 18 18 18 17 16 17 17 13 11 10 9 8 10 14 16 18 22 21 20 22 24 22 20 19 20 22 23 24 24 24 25 28 32 36 36 35 36 37 37
5 6 6 7 6 5 4 2 1 1 1 1 2 4 6 7 8 10 12 11 12 12 13 14 14 15 15 16 17 17 18 18 19 19 19 19 20 20 20 19 19 19 19 19 19 19 19 19 18 17 15 16 16 13 10 11 11 10 9 9 10 13 16 15 13 16 19 20 18 17 22 25 25 24 24 24 25 27 31 34 36 36 37 38 37
6 6 7 7 6 4 4 4 3 2 2 2 4 5 8 10 11 12 12 13 13 13 13 13 13 14 15 16 16 16 17 19 20 20 20 21 21 20 21 21 21 21 20 20 20 20 20 19 18 18 16 16 16 14 12 11 11 11 9 7 7 8 11 12 13 16 19 20 17 15 19 24 26 25 23 24 26 28 29 31 34 36 37 37 36
5 6 6 6 6 6 6 5 4 3 3 4 6 9 12 13 12 12 12 13 13 12 12 13 13 13 14 14 15 15 17 18 20 21 22 21 21 21 22 22 22 22 22 22 21 21 21 21 20 20 19 18 17 16 14 12 10 9 8 7 7 8 11 13 14 14 16 17 16 17 18 19 20 22 21 22 26 28 28 28 30 33 36 37 35
5 6 6 7 8 7 6 5 5 6 7 10 12 14 14 12 11 11 11 11 11 12 12 12 12 12 12 13 13 14 14 15 18 20 20 20 20 20 21 21 21 21 22 22 22 22 22 23 23 23 23 22 20 18 16 14 12 10 9 8 9 10 11 11 10 12 14 15 16 19 21 19 17 18 19 19 21 24 25 27 29 32 35 36 35
6 7 8 9 9 8 8 8 8 11 13 14 15 14 12 11 11 11 10 10 11 11 11 11 11 11 12 12 11 11 12 13 16 19 20 20 20 20 20 19 18 19 21 22 22 23 23 23 24 24 24 24 24 22 19 17 15 14 11 9 8 9 10 11 10 9 11 14 16 19 20 18 15 15 17 17 18 20 23 26 29 32 34 34 34
8 9 10 11 10 10 11 12 13 14 15 15 14 12 11 11 10 10 10 11 11 11 10 10 10 10 10 10 10 10 11 13 17 18 19 19 20 21 20 19 18 18 19 21 23 23 23 24 25 25 25 25 24 24 23 21 18 16 15 13 11 10 9 10 11 11 11 12 16 18 18 16 15 15 16 17 18 19 22 24 26 29 31 31 32
10 11 13 14 13 14 15 15 15 15 14 13 12 11 10 10 10 10 10 11 11 11 10 10 10 11 11 11 11 11 14 17 19 19 19 19 20 20 20 20 20 19 20 21 23 24 24 25 25 26 27 27 26 26 26 26 25 22 20 18 16 14 12 11 10 10 11 12 14 15 16 15 16 16 17 17 18 19 22 23 24 26 28 29 32
11 13 15 16 15 14 15 15 14 14 13 12 11 11 10 10 10 10 10 10 11 11 11 11 12 13 14 14 15 16 19 20 20 20 20 20 20 20 20 21 21 21 22 23 24 24 24 25 26 27 28 29 29 28 28 29 29 28 25 22 19 18 16 14 12 11 10 11 12 14 14 15 16 17 18 18 18 19 21 22 24 27 29 30 32
12 14 16 16 15 14 14 14 13 13 12 11 11 10 10 9 9 9 9 10 10 10 11 12 13 14 15 15 17 19 21 20 20 20 20 20 19 19 19 19 19 20 21 22 22 22 23 24 24 25 27 27 28 29 28 28 28 28 27 26 24 22 20 17 15 14 12 11 11 12 13 13 14 16 18 19 18 19 21 23 24 26 28 30 33
13 15 16 15 14 14 13 13 13 12 11 11 11 10 9 9 9 9 9 9 9 9 11 12 13 13 14 15 16 18 19 20 19 19 19 19 19 18 18 18 18 18 19 19 19 19 21 22 22 23 24 24 26 27 26 25 25 25 25 25 25 24 22 20 18 16 14 13 12 12 12 13 14 15 16 17 19 20 22 24 26 27 29 32 35
13 14 15 14 14 14 13 12 12 12 12 12 11 10 10 10 10 10 9 9 9 10 11 12 12 13 14 15 15 17 19 20 19 19 19 19 19 19 19 18 19 19 19 20 20 20 21 22 23 24 24 24 25 26 25 24 23 23 23 23 24 23 23 23 23 23 22 19 17 15 15 15 16 17 16 16 17 18 20 23 24 25 28 30 30
13 14 14 14 13 13 12 11 12 12 12 11 10 10 10 10 11 10 9 9 10 11 12 12 13 14 15 15 15 17 19 19 19 19 19 19 19 19 20 20 20 21 21 21 22 22 23 23 25 26 26 26 26 25 23 22 21 21 23 23 23 23 24 25 26 26 27 26 25 22 20 18 17 17 17 17 17 16 16 19 23 26 29 29 28
13 13 14 13 14 14 12 12 12 12 11 10 9 10 10 10 10 10 9 10 11 11 12 13 14 15 15 15 16 18 20 19 19 19 19 18 18 19 19 20 20 21 22 23 23 23 23 24 24 24 24 26 26 25 24 21 18 19 21 22 23 23 24 25 24 24 24 25 25 25 24 22 20 18 18 17 17 17 15 16 21 26 29 30 28
13 14 15 15 15 14 13 11 11 10 9 8 9 10 10 10 11 10 9 10 11 12 13 15 16 17 17 18 19 20 22 22 21 21 20 20 19 20 20 20 21 22 23 24 24 25 26 26 25 23 23 23 24 23 23 21 19 19 20 21 20 21 22 22 21 21 22 21 21 22 22 22 22 23 23 23 21 16 12 12 17 22 24 22 21
16 17 17 16 15 14 12 10 10 10 10 10 10 11 11 11 12 11 10 11 13 15 15 17 18 19 19 20 20 21 21 22 21 21 22 22 22 22 22 22 23 24 25 25 26 27 28 29 28 27 26 25 23 22 22 21 20 20 21 21 20 21 23 22 20 20 20 20 21 22 22 23 24 25 26 27 26 23 19 12 9 17 19 18 17
18 18 17 16 15 13 12 11 10 11 11 12 13 13 13 13 13 12 12 13 15 16 16 17 18 19 19 19 19 19 20 21 21 21 21 21 22 22 22 23 25 25 25 26 27 28 29 30 30 30 29 27 26 24 23 23 22 21 21 21 22 23 24 23 22 23 23 23 23 23 23 23 24 24 25 26 25 25 26 24 14 5 11 16 18
18 17 16 16 15 14 13 12 12 12 13 14 14 14 14 14 13 12 13 14 15 15 15 15 17 18 18 18 19 20 20 21 21 21 21 21 21 21 22 24 25 24 24 26 26 28 28 29 29 29 28 27 27 27 26 25 24 23 22 23 23 22 21 21 22 22 23 23 23 23 23 23 22 22 22 23 24 24 25 26 25 20 11 2 12
18 17 16 16 15 14 14 13 13 14 14 14 15 15 14 13 12 13 13 13 14 14 15 15 15 17 18 18 19 21 21 21 21 21 21 21 21 21 23 24 24 23 24 25 26 27 27 27 27 26 25 25 26 26 27 27 26 26 25 23 20 18 17 18 18 19 20 21 22 22 22 22 22 21 20 20 21 23 23 22 23 24 22 17 6
18 17 17 16 15 15 15 14 14 15 14 13 13 14 13 12 12 12 12 12 13 14 15 15 16 17 19 20 21 22 22 22 22 22 22 23 23 24 25 25 25 24 25 26 26 26 25 24 24 23 22 23 24 24 25 25 26 27 26 23 20 18 17 17 17 18 19 20 21 22 23 24 25 24 23 21 20 20 20 19 19 20 20 21 19
18 17 17 17 16 15 15 15 14 14 13 12 12 13 13 12 12 12 11 11 12 14 16 16 17 19 21 22 23 24 24 24 24 24 25 25 26 26 26 27 26 26 27 27 25 24 23 22 21 20 20 21 22 23 24 24 25 26 26 25 24 23 23 22 21 21 21 22 24 25 27 28 28 28 27 25 22 20 18 16 16 16 17 17 18
18 18 17 17 16 16 15 14 14 13 12 11 11 12 12 11 12 12 11 11 13 15 17 17 18 20 22 23 24 24 25 25 25 25 25 25 26 26 26 27 26 26 26 26 24 22 21 20 20 19 20 20 21 22 23 25 25 25 25 25 26 26 27 28 28 28 28 30 31 30 29 27 27 27 27 26 23 21 19 17 15 13 14 15 15
18 18 17 17 16 15 15 14 13 12 12 11 10 11 11 11 12 12 12 13 14 17 18 18 19 20 21 22 23 24 24 24 24 25 24 24 25 25 25 25 25 24 24 24 23 22 20 19 20 21 22 22 22 23 25 26 26 25 25 26 26 28 30 30 30 31 32 33 34 33 31 28 24 22 22 22 23 24 24 23 20 16 15 13 12
18 18 17 16 15 15 14 14 14 13 12 11 10 11 11 11 13 13 13 14 16 18 18 19 19 20 20 21 22 22 22 22 22 23 23 23 23 23 23 23 23 22 22 22 21 20 20 20 20 21 23 24 24 26 27 27 26 26 26 27 27 29 30 30 31 32 33 33 33 32 32 30 25 21 19 20 22 26 27 26 24 23 22 17 11
18 17 17 16 15 15 14 14 14 13 13 12 12 13 13 13 14 15 15 15 17 18 18 18 19 20 20 21 22 22 21 21 22 22 22 22 23 23 23 23 23 22 22 21 21 20 20 21 21 21 22 23 24 26 27 28 28 29 29 29 29 29 30 30 31 32 32 32 31 31 31 31 29 26 23 21 23 26 26 24 24 25 25 22 19
17 17 16 16 16 15 14 14 15 14 14 14 14 14 15 14 15 16 16 16 16 17 18 18 19 20 20 21 22 22 22 22 22 22 22 21 22 22 23 24 24 24 23 22 21 21 21 21 22 23 23 24 25 27 28 29 30 31 31 31 31 31 30 30 30 32 33 32 31 30 30 31 31 30 27 25 25 26 23 21 22 24 23 24 25
17 17 17 16 16 16 15 15 15 15 15 16 16 16 16 15 15 16 16 16 16 17 18 19 20 20 20 21 22 23 23 23 23 22 21 21 22 23 24 25 25 24 23 22 21 22 22 24 25 26 27 28 29 30 31 31 31 31 31 31 32 32 32 32 32 33 33 33 32 32 32 32 32 32 30 29 27 24 21 20 21 23 23 24 25
17 17 17 17 17 17 17 17 16 16 16 17 17 18 18 17 15 15 15 16 16 17 18 19 20 19 19 21 22 23 23 23 22 21 20 21 21 22 24 25 24 24 23 22 22 24 26 27 29 29 29 30 31 31 31 31 31 32 31 31 32 32 32 32 32 32 32 31 32 32 33 33 33 33 33 32 29 24 19 18 20 22 22 23 23
17 18 18 17 18 17 17 17 17 16 17 16 16 17 17 17 17 16 16 16 17 17 18 19 19 19 19 20 21 22 22 22 21 20 20 20 21 21 22 23 24 24 23 23 24 27 29 29 30 29 29 29 29 28 29 29 29 30 30 30 31 31 30 30 30 29 29 29 30 31 32 33 33 33 33 32 30 27 21 16 17 20 21 21 22
17 18 19 19 19 18 18 18 17 17 17 16 15 15 16 18 19 19 18 17 17 18 18 18 18 19 19 20 20 21 21 21 20 20 20 20 20 21 22 22 23 24 23 24 26 29 29 29 29 28 28 27 26 25 25 25 26 26 27 28 29 29 28 28 27 27 27 28 29 30 31 33 33 33 32 31 30 30 26 17 14 17 19 18 18
16 18 19 20 20 19 18 18 17 17 16 16 15 15 15 17 20 21 21 20 20 19 19 19 18 19 19 20 20 20 20 20 19 19 19 19 19 20 20 21 22 22 23 24 26 28 28 28 28 27 26 25 24 23 22 22 22 22 23 24 26 26 26 24 23 23 24 25 26 28 29 31 32 32 32 31 30 30 29 22 15 14 16 16 14
15 17 19 19 20 20 19 18 18 17 16 15 16 16 16 17 20 21 22 22 21 20 19 19 18 18 19 19 19 19 19 19 18 18 18 18 19 19 18 19 20 21 22 24 26 26 27 27 26 26 25 24 24 23 22 21 19 19 19 19 21 22 22 22 22 23 22 22 24 25 26 28 29 30 31 31 30 29 29 25 19 15 15 14 12
15 17 18 18 19 19 19 19 18 18 17 16 16 16 17 17 18 19 19 20 20 20 19 18 17 17 17 18 18 18 18 19 19 18 18 18 18 17 16 18 20 21 22 24 24 25 25 25 25 25 25 24 24 23 23 21 20 19 18 18 18 19 19 19 21 22 21 19 20 22 23 25 27 28 29 30 29 29 28 27 24 20 18 16 14
15 17 18 18 18 18 19 18 18 17 17 17 16 16 16 17 17 17 18 18 18 18 18 17 16 16 16 16 16 17 17 18 18 17 17 18 17 16 17 19 20 21 22 23 23 23 23 23 23 24 23 23 23 23 22 22 21 20 19 18 18 18 18 17 18 19 19 18 18 19 20 22 24 25 26 27 28 27 26 25 24 22 20 18 17
14 16 17 18 18 18 18 18 17 17 16 16 16 16 16 17 16 16 17 17 17 17 17 16 16 15 15 15 15 15 15 15 16 16 16 16 16 16 18 19 19 20 21 22 22 22 22 22 22 22 22 22 22 22 21 21 21 20 20 19 18 17 16 15 15 16 17 17 16 17 18 19 21 22 23 24 25 25 24 23 23 22 20 19 17
13 14 16 18 18 18 18 17 17 17 16 16 16 16 17 17 17 17 17 17 17 17 17 16 16 15 15 15 14 14 13 13 13 14 14 15 15 16 17 18 18 18 19 20 21 21 21 21 20 20 20 20 20 20 21 21 20 20 20 19 18 17 15 13 12 13 14 15 15 15 15 17 18 19 19 20 21 22 23 22 21 20 18 17 16
13 14 16 17 17 18 17 17 16 16 16 16 16 16 17 18 18 17 17 17 16 16 15 15 14 14 14 14 14 13 13 12 12 12 13 14 15 15 16 16 16 17 18 18 19 20 20 20 20 20 19 19 19 19 19 20 20 20 20 20 19 18 17 16 14 14 14 14 14 13 13 14 16 16 16 16 17 18 20 21 21 19 18 16 14
16 16 16 17 17 18 17 16 16 15 15 15 15 15 17 18 18 17 16 15 14 13 13 12 11 11 11 11 11 11 11 11 11 12 13 13 14 14 14 14 15 15 16 16 17 17 18 18 19 20 20 20 19 18 18 19 19 19 19 19 19 19 19 18 17 15 15 14 13 13 13 13 14 14 14 15 15 15 17 18 19 19 18 16 14
17 17 17 17 18 18 17 17 16 15 14 13 13 14 16 16 16 15 14 13 12 11 10 9 8 8 8 8 8 8 8 9 10 10 11 12 12 12 13 13 14 14 15 15 15 15 15 16 17 19 20 21 20 19 18 19 19 19 19 19 19 18 18 18 17 17 16 15 13 13 13 13 12 12 12 13 13 14 15 16 16 16 17 16 14
18 19 18 18 19 19 18 17 16 15 13 12 11 12 14 14 14 13 11 10 9 8 7 6 6 5 5 5 5 6 6 7 8 8 9 10 10 10 11 11 12 13 13 14 13 13 13 14 15 17 19 20 20 19 18 19 19 20 20 20 19 19 18 17 17 17 16 16 14 13 12 12 11 10 10 10 11 12 13 14 14 14 14 14 13
18 19 19 20 20 19 18 17 16 15 13 11 10 10 11 12 12 11 9 8 6 5 4 3 2 2 2 2 3 4 4 5 5 6 7 7 8 8 8 9 9 10 11 12 12 11 11 11 13 14 16 18 19 18 18 18 19 19 20 20 20 20 19 18 17 16 16 16 15 13 12 11 10 10 9 9 9 10 11 12 13 12 11 12 13
19 20 20 21 20 18 18 17 16 14 12 11 10 9 10 12 13 11 9 7 6 4 3 3 2 2 1 1 1 2 3 4 4 4 5 6 6 7 7 7 8 8 9 10 10 10 9 9 10 12 13 15 16 17 16 16 17 18 18 19 19 19 19 19 19 18 17 16 15 14 13 12 11 10 9 9 9 9 9 10 11 11 10 9 10
19 20 21 21 19 17 17 16 15 13 11 11 10 10 11 14 13 11 9 7 7 6 6 6 5 5 4 3 3 3 3 3 3 3 3 4 5 6 6 7 7 7 8 8 7 7 7 7 8 9 10 11 13 14 14 14 14 16 17 17 18 18 19 20 20 20 19 18 16 15 14 13 12 11 10 9 9 9 8 8 9 9 9 9 8
19 19 20 19 18 17 16 15 14 13 13 12 11 12 14 14 12 10 9 8 7 6 6 6 6 6 6 5 5 4 4 3 3 3 3 3 4 5 6 7 6 6 7 7 6 6 5 6 6 7 8 9 10 11 11 11 12 13 14 16 16 17 18 19 20 20 20 19 18 16 15 14 13 12 11 10 10 9 9 8 8 7 7 7 8
18 17 16 16 15 15 15 15 15 14 13 13 13 13 14 13 11 10 9 8 7 6 6 6 6 6 6 6 6 6 5 4 4 4 4 4 5 5 6 6 6 6 6 6 6 5 4 4 5 6 6 6 7 8 9 10 10 10 12 13 14 15 16 17 18 19 20 20 19 19 17 15 14 13 13 12 11 10 10 9 9 8 8 7 7
17 15 15 15 15 15 15 15 15 14 13 13 14 14 14 13 13 12 11 10 9 9 9 8 7 7 6 6 6 7 7 6 6 6 5 5 6 6 6 6 6 6 6 6 6 5 4 4 4 5 5 4 5 6 7 8 8 8 10 11 12 13 14 15 16 17 18 19 19 20 19 18 16 15 14 13 12 11 10 10 10 10 10 10 9
17 16 15 14 14 15 15 15 15 14 14 14 14 14 14 14 14 14 13 13 12 12 12 11 10 8 7 7 7 8 8 8 7 7 7 7 7 7 7 7 7 7 7 7 6 5 4 4 4 4 4 4 4 5 6 7 8 8 8 9 10 11 12 13 14 15 16 17 18 19 19 19 19 17 16 14 13 13 12 11 11 11 12 12 12
17 16 15 14 14 14 14 15 15 14 14 15 14 14 14 15 15 14 14 14 14 13 13 12 11 10 9 8 9 9 9 8 8 7 7 7 7 8 8 8 8 7 7 7 7 6 6 5 5 5 5 5 5 6 6 7 8 8 8 9 10 10 11 11 12 13 14 15 17 17 18 18 18 18 18 17 15 14 13 12 12 11 12 12 13
16 16 15 15 15 15 15 16 16 16 16 16 16 15 15 15 15 14 14 14 14 13 13 12 11 10 10 10 10 10 9 8 7 7 7 7 7 7 8 8 8 8 8 8 7 7 7 6 6 6 6 6 6 7 7 8 8 9 9 9 9 10 10 10 11 12 13 14 15 16 17 17 17 17 17 17 17 15 14 13 13 12 12 11 12
Wind_Direction
256 251 245 241 244 247 252 257 261 269 279 304 327 339 340 340 345 339 335 343 348 351 360 9 16 22 26 25 23 20 18 16 16 16 16 12 9 9 11 12 10 6 3 0 357 354 349 345 348 350 346 341 341 339 329 320 305 285 271 261 254 249 244 242 244 247 250 248 236 221 221 231 239 242 240 238 237 232 225 222 220 217 215 215 216
245 242 232 228 238 247 251 251 256 276 297 314 328 342 346 352 358 349 351 5 10 11 18 23 28 32 31 27 24 23 21 21 20 19 17 12 8 9 12 11 8 4 3 2 0 2 359 351 347 348 345 339 336 336 337 333 317 297 281 265 253 250 248 247 249 252 250 240 224 218 226 235 240 243 242 240 239 236 229 223 220 218 217 216 216
233 231 227 227 236 242 245 248 263 286 296 313 349 10 10 11 11 11 20 28 27 26 30 32 33 33 31 29 28 27 26 25 24 21 18 15 14 15 16 14 10 5 3 2 2 2 3 1 357 354 350 346 341 338 341 342 338 331 306 281 270 262 256 254 255 257 256 248 236 228 232 243 247 245 244 245 243 237 232 227 222 218 217 217 216
230 229 227 229 235 236 231 223 218 193 157 81 42 30 27 31 33 35 40 41 38 36 36 38 38 35 34 34 31 30 31 30 28 24 20 18 17 18 19 18 18 15 12 8 6 4 4 5 5 1 355 352 351 348 346 342 338 342 333 317 310 284 263 256 257 263 269 273 269 250 238 245 251 244 241 245 243 238 235 230 224 219 218 218 217
238 230 227 225 221 204 180 167 156 138 109 62 48 50 55 58 57 54 50 47 45 41 38 42 42 37 37 38 38 39 39 36 32 30 28 26 25 24 24 26 28 28 24 18 14 10 9 9 8 4 358 355 355 352 345 335 332 338 334 326 322 292 270 269 271 272 272 273 278 270 254 252 253 246 240 240 240 237 233 230 225 220 219 220 218
222 213 212 199 173 157 151 149 141 120 100 81 76 75 74 73 68 60 53 48 45 40 39 43 44 43 45 45 45 44 43 39 34 32 32 31 32 31 30 31 33 32 30 27 23 19 15 13 12 10 6 2 358 357 355 348 334 331 327 318 312 298 283 275 266 260 260 260 259 261 270 273 262 249 243 240 239 235 230 228 226 222 221 221 219
197 191 180 158 147 146 142 137 124 106 97 92 88 85 81 75 67 59 52 46 43 41 42 43 43 44 44 42 40 40 40 39 36 32 29 27 26 26 26 28 30 30 30 29 27 26 23 19 18 17 15 11 5 358 357 357 352 343 328 310 306 307 304 296 270 238 236 248 249 251 265 275 264 251 247 242 239 236 231 228 225 223 222 220 219
173 165 153 142 138 136 129 121 110 102 97 93 90 87 81 72 65 58 50 45 46 44 41 39 35 32 30 26 27 29 29 33 34 31 27 23 20 18 18 19 21 24 27 30 30 30 29 27 27 26 24 21 18 11 5 360 356 352 343 329 317 312 310 312 306 275 247 244 246 252 262 266 259 253 250 242 238 237 232 229 229 227 222 219 219
151 145 138 131 126 122 116 110 105 101 97 94 92 86 79 72 64 57 51 48 46 41 36 31 25 22 21 17 19 21 23 29 32 28 24 22 19 15 16 19 21 24 28 32 33 32 33 36 37 37 34 31 28 25 21 15 7 359 354 350 345 333 319 312 313 309 293 272 262 264 270 270 263 259 256 251 247 242 235 231 232 231 226 221 218
144 139 130 123 118 114 112 107 104 101 97 95 91 84 77 70 63 58 54 50 46 42 36 30 26 24 23 22 23 26 31 35 33 27 25 25 23 22 23 23 25 28 30 33 35 36 40 44 45 45 43 39 35 34 32 28 23 17 11 6 0 353 343 332 322 314 310 303 292 283 279 279 278 276 272 264 256 248 240 233 229 228 227 223 218
142 135 128 123 119 116 113 108 104 101 98 94 89 81 74 67 61 58 55 52 49 46 41 37 35 34 32 32 33 37 40 39 33 29 28 27 25 25 25 24 25 28 31 34 37 40 42 42 42 44 43 40 36 35 35 34 31 27 24 21 16 8 360 351 343 335 328 327 320 307 298 295 294 291 286 277 264 252 247 242 234 227 223 219 215
140 134 130 127 125 120 114 109 106 103 98 92 84 76 69 63 60 57 57 56 53 49 47 45 45 44 43 41 42 46 46 41 35 31 29 27 25 25 25 24 25 28 32 36 37 37 35 33 33 36 38 37 34 32 32 35 36 34 32 31 29 24 16 6 359 355 348 342 336 323 314 311 306 300 297 296 287 272 260 251 242 235 230 223 216
139 134 132 132 129 122 116 113 109 103 95 87 80 76 70 65 62 59 59 61 58 55 55 53 52 52 50 48 49 52 49 41 34 29 27 26 25 25 28 29 30 32 35 37 34 30 26 24 26 29 30 31 31 29 27 29 32 34 35 35 35 34 31 25 19 17 10 360 354 348 340 332 324 315 309 305 298 287 273 257 243 236 231 223 216
139 136 135 135 130 122 117 113 106 99 93 87 83 79 74 70 68 68 68 68 65 62 60 57 55 52 50 49 49 50 48 42 34 28 26 25 24 25 29 32 35 36 36 35 33 31 27 25 26 27 26 26 25 23 21 21 22 25 29 33 34 35 37 36 33 29 25 20 14 7 357 346 336 330 324 317 306 296 284 270 256 246 237 226 217
140 140 137 134 128 120 116 111 104 99 94 90 86 82 79 79 79 78 77 72 67 63 60 56 54 52 51 48 47 49 49 43 36 31 28 26 26 26 28 31 33 35 35 33 32 33 32 30 27 26 25 24 20 15 15 16 17 21 27 29 29 31 36 38 35 30 27 25 22 18 10 359 347 335 328 322 313 304 292 278 267 257 244 227 213
142 142 137 131 124 120 117 112 107 102 98 94 90 88 88 88 86 81 75 71 66 63 61 59 58 57 56 53 53 55 54 48 42 38 34 30 29 28 29 32 34 36 37 35 34 34 33 31 29 26 24 24 21 17 15 14 16 25 31 32 32 35 38 39 38 34 31 28 25 22 19 14 9 358 348 338 323 307 292 277 265 250 232 213 202
136 134 131 125 122 122 121 117 111 105 102 100 96 96 93 90 86 81 76 73 71 68 67 68 67 66 66 64 63 63 61 56 52 49 45 42 40 38 37 38 41 43 43 42 41 40 38 35 32 29 26 24 22 21 19 16 17 24 28 30 34 38 39 37 35 35 32 27 22 18 15 14 13 8 4 0 352 335 308 280 263 247 230 214 202
125 126 125 122 121 122 121 118 113 110 109 105 100 98 95 91 89 86 81 79 78 77 76 76 74 71 69 67 65 64 62 59 54 52 50 48 47 47 46 46 47 48 48 47 46 44 43 41 38 35 32 28 24 22 22 21 23 25 25 24 28 33 32 27 23 21 16 11 11 11 10 10 8 4 1 360 360 1 359 343 272 238 233 232 222
123 124 122 120 120 121 120 119 116 113 111 105 100 98 96 93 92 89 86 84 83 83 80 77 75 71 68 65 63 60 58 56 51 48 48 46 46 47 47 47 47 47 47 46 46 45 44 43 41 39 36 33 29 26 24 23 25 27 27 25 27 29 24 15 11 9 4 3 6 7 8 10 6 359 355 353 353 359 5 6 358 287 235 230 231
125 124 121 121 121 120 120 120 117 114 110 106 103 100 96 95 94 92 89 88 87 85 80 76 74 71 66 63 60 57 54 52 49 46 45 44 43 44 45 46 45 43 44 43 42 42 41 41 42 40 38 36 34 33 31 29 28 28 26 27 29 27 18 11 9 8 6 7 9 7 9 11 9 4 360 357 357 358 360 2 4 4 3 245 214
128 127 125 125 124 123 123 122 118 113 109 106 105 102 98 97 95 92 91 89 87 84 79 75 73 70 66 61 58 56 54 52 50 48 46 45 45 44 46 47 45 43 43 42 40 40 39 38 39 38 35 34 34 34 35 35 34 34 33 31 30 23 14 11 11 9 8 8 6 6 10 12 13 12 8 5 7 7 4 360 358 359 2 7 14
132 132 131 130 129 127 125 122 118 113 110 109 107 103 102 100 96 93 92 89 86 82 79 76 73 71 68 64 61 59 57 55 53 52 50 49 48 48 48 48 45 42 43 42 40 39 37 37 37 34 30 31 31 32 34 36 38 40 40 38 35 29 22 19 16 13 14 14 12 15 19 21 21 21 17 13 12 11 12 12 8 5 3 2 5
138 138 136 136 133 131 128 123 119 116 114 112 107 103 104 103 98 95 92 88 86 83 80 77 75 73 70 67 64 61 58 56 54 52 51 49 48 47 46 45 42 40 41 42 41 39 37 37 36 32 28 28 29 31 33 35 38 40 40 39 39 37 35 33 30 29 30 29 26 25 25 24 23 23 21 20 17 11 10 14 15 14 13 8 5
143 141 140 139 136 133 130 126 123 121 117 114 109 106 106 105 101 99 95 90 87 85 82 79 76 74 72 68 65 62 59 56 54 52 50 48 47 47 45 43 41 39 40 42 41 41 40 39 37 35 32 32 34 36 37 37 38 38 38 39 39 39 39 39 39 39 39 36 33 30 27 24 21 20 21 23 24 21 18 19 18 12 12 13 13
145 142 141 140 138 136 133 130 128 125 120 117 112 109 109 108 106 103 99 93 88 85 83 80 76 74 72 68 64 61 58 57 54 52 50 48 48 48 46 44 41 39 39 41 42 42 43 41 39 38 38 38 40 42 41 40 40 39 38 37 38 39 40 41 41 41 39 36 33 31 30 28 25 21 19 20 24 27 26 26 26 27 25 18 14
145 143 142 141 140 140 138 135 133 129 124 123 119 115 114 113 109 105 101 95 89 85 83 80 76 74 71 68 66 63 61 59 56 52 50 48 48 48 47 46 43 41 41 42 42 43 43 41 40 40 41 42 44 44 44 43 42 42 40 39 38 39 39 38 37 37 36 33 31 31 30 30 29 27 21 19 23 24 22 23 28 34 36 33 32
146 142 142 142 142 143 142 139 137 133 130 129 125 120 118 115 110 104 98 92 89 87 84 81 78 75 71 69 69 68 66 63 60 55 50 46 46 47 47 46 44 42 42 43 43 43 44 44 44 45 45 46 47 46 45 43 43 43 42 41 40 39 38 37 36 35 34 32 32 32 31 31 32 34 31 27 27 26 21 22 28 31 32 37 46
144 141 142 142 142 144 145 143 141 138 135 133 128 123 120 116 111 104 96 90 88 87 86 81 76 73 71 70 69 69 68 65 61 57 51 46 45 47 47 47 45 42 43 43 44 44 45 45 46 45 44 45 45 44 45 44 43 42 42 40 39 38 38 38 38 37 36 34 34 34 33 32 33 34 33 31 30 29 26 28 32 31 31 40 50
144 142 142 142 142 145 146 145 144 142 139 135 130 124 120 114 109 105 100 95 91 88 85 80 74 70 70 68 66 65 65 63 60 56 52 48 48 49 49 48 47 45 45 46 46 45 45 44 43 42 42 42 43 44 45 44 42 41 40 39 38 37 37 37 38 37 37 37 37 37 37 36 35 34 33 33 33 33 33 36 40 39 38 44 50
145 143 142 141 143 145 145 145 145 143 141 138 134 128 123 116 111 109 105 101 95 89 85 81 74 69 67 66 66 65 65 64 61 57 54 52 52 53 53 52 51 49 49 48 48 48 46 45 44 43 43 43 44 44 43 43 41 39 37 37 37 38 38 38 37 37 38 39 40 39 39 38 38 36 34 34 34 36 38 42 45 45 43 43 46
146 143 142 142 142 143 144 145 145 144 142 141 138 134 129 123 117 112 106 102 97 91 85 81 76 71 67 67 68 69 68 66 63 59 58 57 57 57 57 57 55 53 50 49 50 50 48 46 46 45 44 44 44 43 42 42 41 39 37 37 37 37 37 38 37 37 39 41 41 41 40 39 38 37 36 35 35 36 38 44 49 47 43 41 44
148 144 142 141 141 142 143 143 143 144 143 140 138 136 134 128 121 113 107 103 99 94 89 83 77 73 71 71 72 72 71 68 65 62 60 59 58 58 58 57 56 54 51 49 50 50 48 46 45 44 43 43 42 41 41 41 40 37 36 36 36 35 35 36 37 36 38 40 41 41 41 40 39 39 38 37 36 36 38 44 52 51 46 44 48
151 145 142 141 140 141 141 140 141 141 138 137 136 135 134 129 121 114 110 105 101 96 92 86 80 75 74 74 74 72 71 69 67 65 62 60 58 57 56 55 55 53 50 49 50 50 48 46 44 42 41 41 40 38 39 39 38 37 35 35 34 33 32 34 37 37 36 37 39 40 39 37 36 37 39 39 38 37 39 44 53 53 47 47 54
153 148 144 142 141 141 139 138 138 138 136 137 136 133 130 124 117 113 111 108 105 101 96 90 83 78 76 74 73 71 69 68 67 66 63 60 57 55 54 54 54 52 49 48 49 48 47 45 44 41 39 38 36 35 35 34 32 32 32 31 30 29 29 32 35 36 35 36 39 39 36 32 32 34 38 40 40 40 40 43 48 48 43 41 44
152 150 146 144 142 140 138 137 137 138 139 140 138 133 127 122 117 113 110 108 106 104 99 94 88 81 76 74 71 68 67 65 63 63 61 58 56 54 52 52 52 50 49 48 47 46 45 44 43 42 39 37 35 33 32 30 27 25 23 21 19 19 23 28 31 32 31 33 38 40 37 34 33 34 36 38 40 40 40 42 45 45 44 45 44
153 151 149 146 143 140 138 137 137 138 140 142 142 138 131 126 122 117 112 109 106 104 101 98 93 87 81 75 70 66 64 61 59 58 56 55 52 49 48 49 49 48 48 47 46 44 43 42 41 40 39 37 36 34 31 30 28 24 20 17 13 12 15 19 23 27 28 29 34 38 37 35 34 34 35 37 38 38 38 38 40 43 44 46 50
160 156 152 149 146 143 141 138 137 138 140 143 144 142 137 133 129 123 117 114 110 106 103 100 96 91 86 80 73 67 63 59 56 53 51 48 46 43 44 47 47 46 45 44 42 41 41 40 38 37 36 35 35 34 33 31 30 27 24 21 17 14 13 13 15 19 23 26 28 30 32 34 34 33 35 37 38 38 36 34 34 36 39 42 48
170 162 156 154 153 151 147 143 139 139 140 142 143 142 140 138 135 129 123 119 114 110 106 101 97 93 88 83 77 71 65 61 57 53 49 46 42 41 42 43 43 42 41 40 38 37 37 38 37 35 34 32 31 31 31 30 29 28 27 25 23 20 19 18 14 14 17 20 22 23 26 29 30 30 32 35 35 36 36 33 30 29 31 35 42
178 169 162 160 161 161 157 152 147 143 141 140 140 141 142 141 138 133 127 122 117 113 109 104 100 96 90 84 79 73 67 63 59 54 50 47 44 42 42 41 40 40 39 37 36 35 34 35 36 35 33 31 30 29 29 28 27 27 26 25 24 23 22 20 16 11 9 10 13 16 18 19 21 24 27 27 27 30 33 33 32 30 27 27 31
182 175 168 166 168 168 167 163 159 153 146 140 138 140 143 144 140 135 131 126 122 118 113 109 104 97 91 85 80 74 67 61 57 55 52 49 45 43 42 41 40 40 39 37 37 35 33 33 34 34 33 32 31 31 31 30 28 27 25 23 22 21 20 19 17 12 7 4 5 8 11 14 18 23 24 22 22 24 25 26 30 31 27 24 23
183 179 174 171 172 172 172 171 168 162 153 145 141 142 144 144 141 137 134 130 127 123 118 113 106 98 91 85 79 73 66 59 55 52 50 48 46 43 43 43 42 41 40 39 38 37 35 34 33 32 32 32 32 32 32 31 30 28 27 24 22 21 19 17 16 14 11 7 3 2 5 10 14 17 20 22 22 20 16 16 22 27 26 23 22
183 180 177 175 175 176 176 174 172 168 161 154 149 148 150 150 147 143 140 136 133 129 123 116 106 97 90 81 71 65 59 54 52 49 46 44 43 42 42 43 41 39 38 37 36 37 37 36 34 32 30 29 30 31 31 31 30 29 27 26 24 22 20 17 15 13 11 9 5 360 358 1 5 9 13 16 15 11 7 7 13 20 22 22 22
182 180 180 178 178 179 179 177 176 175 169 163 159 159 162 164 163 160 156 153 149 146 140 132 120 100 79 64 54 48 42 40 43 44 41 38 37 37 38 38 37 35 33 31 32 34 37 38 36 33 29 27 27 28 29 29 29 28 26 25 25 24 23 21 18 14 11 9 8 3 356 353 353 356 360 1 360 357 359 4 9 13 16 20 22
182 182 183 183 182 182 182 183 183 181 174 169 170 173 175 175 176 177 177 176 179 186 195 210 235 255 273 302 332 358 10 14 20 26 31 32 31 30 30 30 29 27 26 24 25 30 36 39 36 32 29 26 25 26 27 27 27 27 26 25 24 24 24 23 21 19 15 10 6 4 359 353 346 342 342 345 347 349 354 1 7 9 10 13 16
182 183 185 186 187 188 190 192 192 188 181 179 182 183 181 180 182 185 190 195 204 215 225 236 248 256 262 269 282 303 323 335 342 353 4 12 17 21 22 21 19 17 16 15 13 16 24 30 28 26 24 21 20 22 24 25 25 26 26 26 25 24 24 23 22 20 19 14 9 4 360 355 350 343 334 329 330 336 343 351 356 360 3 3 3
184 186 188 191 194 197 199 201 199 193 187 185 186 184 182 183 186 192 197 204 213 225 233 241 251 258 262 265 275 287 298 305 310 317 326 337 350 1 7 9 8 6 5 3 359 357 1 4 5 9 12 11 10 13 16 18 21 23 25 27 27 26 26 25 23 21 19 17 14 10 4 357 353 348 341 330 321 317 321 326 331 335 340 343 342
186 189 193 198 201 203 203 203 201 197 192 189 189 189 190 192 196 203 209 218 228 239 246 256 265 268 269 272 278 284 289 295 301 306 308 311 319 331 342 351 355 355 352 350 347 340 337 337 338 343 351 356 358 0 2 5 10 15 18 22 25 25 26 27 26 23 21 18 16 14 11 5 358 351 346 340 330 316 306 303 304 307 309 312 317
188 193 198 203 208 209 210 210 210 208 204 198 196 198 201 204 209 216 224 234 245 250 255 264 274 278 280 283 286 285 285 289 298 305 304 301 302 307 316 327 336 341 342 342 337 330 325 326 327 327 330 336 340 344 348 350 353 358 4 9 14 17 20 22 23 22 21 20 18 16 14 11 7 360 352 347 341 332 317 301 291 289 290 292 297
190 195 200 204 207 209 210 211 213 213 210 205 205 208 211 214 220 227 235 243 252 257 260 265 270 275 281 288 291 290 287 289 296 305 306 302 297 296 300 309 320 327 331 333 329 319 312 316 324 325 322 321 321 324 329 333 337 342 348 353 359 3 7 11 14 15 15 15 15 14 14 13 11 8 3 356 350 344 334 319 302 290 283 281 285
199 202 205 208 211 212 212 212 212 212 211 212 214 216 219 222 228 235 240 246 254 259 262 265 268 271 276 284 291 294 293 292 297 303 305 303 299 293 292 298 306 312 318 323 321 311 304 303 308 314 316 316 317 316 315 317 323 328 332 338 344 348 352 357 1 3 5 5 6 6 7 8 9 9 8 5 360 354 346 337 324 309 294 283 280
210 214 216 220 223 223 223 223 221 219 219 222 224 226 228 231 235 240 244 250 257 262 266 268 269 271 275 281 287 292 292 289 289 293 296 300 299 293 289 290 295 298 304 309 308 303 301 301 303 306 309 309 310 312 313 313 316 319 322 326 329 333 338 342 346 350 353 355 357 357 358 359 1 3 4 4 3 360 355 349 340 331 318 303 288